#timestamp,LO_Frequency,Hit,StdDev 
1585105215.7,286046982.4,N
1585105235.5,286046985.5,N
1585105255.3,286046980.9,N
1585105275.2,286046978.3,N
1585105295.0,286046981.2,N
1585105295.9,286046981.2,N
1585105315.8,286046981.6,N
1585105335.6,286046970.9,N
1585105355.4,286046977.2,N
1585105375.3,286046982.0,N
1585105395.1,286046988.2,N
1585105415.8,286046995.0,N
1585105435.7,286046999.1,N
1585105455.5,286046997.5,N
1585105475.4,286046995.6,N
1585105495.2,286046992.5,N
1585105515.0,286046995.1,N
1585105515.9,286046995.1,N
1585105535.8,286046998.7,N
1585105555.6,286047004.8,N
1585105575.4,286047007.0,N
1585105595.3,286047004.6,N
1585105615.1,286047001.8,N
1585105635.9,286046966.4,N
1585105655.7,286046994.1,N
1585105675.5,286046989.6,N
1585105695.4,286046982.4,N
1585105715.2,286046978.6,N
1585105735.0,286046970.1,N
1585105735.9,286046970.1,N
1585105755.8,286046961.0,Y
1585105775.6,286046974.0,P
1585105795.5,286046975.6,P
1585105815.3,286046970.5,P
1585105835.1,286046964.0,Y
1585105855.9,286046985.1,P
1585105875.7,286046983.8,P
1585105895.5,286046990.1,N
1585105915.4,286046977.6,Y
1585105935.2,286047003.9,P
1585105955.1,286047003.6,N
1585105956.0,286047003.6,N
1585105975.8,286047002.2,N
1585105995.6,286046999.5,N
1585106015.5,286047001.0,N
1585106035.3,286047001.7,N
1585106055.2,286047014.6,N
1585106075.9,286047010.3,N
1585106095.7,286047004.0,N
1585106115.6,286047004.2,N
1585106135.4,286046995.9,N
1585106155.2,286046996.8,N
1585106175.1,286047000.1,N
1585106176.0,286047000.1,N
1585106195.8,286047004.5,N
1585106215.7,286047043.1,Y
1585106235.5,286047045.5,P
1585106255.3,286047041.5,N
1585106275.2,286047005.3,N
1585106295.9,286047002.0,N
1585106315.7,286047006.3,N
1585106335.6,286047012.4,N
1585106355.4,286047013.0,N
1585106375.3,286047019.6,N
1585106395.1,286047022.4,N
1585106396.0,286047022.4,N
1585106415.8,286047018.0,N
1585106435.7,286047010.4,N
1585106455.5,286047000.4,N
1585106475.3,286046994.2,N
1585106495.2,286046987.7,N
1585106515.0,286046978.4,N
1585106515.9,286046978.4,N
1585106535.8,286046968.4,N
1585106555.6,286046960.3,N
1585106575.4,286046961.8,N
1585106595.3,286046954.0,N
1585106615.1,286046949.6,N
1585106635.9,286046943.3,N
1585106655.7,286046939.4,N
1585106675.5,286046934.1,N
1585106695.4,286046940.3,N
1585106715.2,286046938.1,N
1585106735.0,286046935.9,N
1585106735.9,286046935.9,N
1585106755.8,286046931.7,N
1585106775.6,286046928.1,N
1585106795.5,286046926.5,N
1585106815.3,286046916.3,N
1585106835.1,286046916.1,N
1585106855.9,286046916.7,N
1585106875.7,286046919.1,N
1585106895.6,286046918.6,N
1585106915.4,286046917.2,N
1585106935.2,286046914.0,N
1585106955.1,286046916.3,N
1585106956.0,286046916.3,N
1585106975.8,286046910.8,Y
1585106995.6,286046950.1,P
1585107015.5,286046952.9,P
1585107035.3,286046947.1,P
1585107055.2,286046953.1,Y
1585107075.0,286047007.9,P
1585107075.9,286047007.9,N
1585107095.7,286047009.0,N
1585107115.6,286047008.6,N
1585107135.4,286047005.2,N
1585107155.3,286047001.4,N
1585107175.1,286046995.1,N
1585107176.0,286046995.1,N
1585107195.8,286046995.3,N
1585107215.7,286047002.1,N
1585107235.5,286047008.8,N
1585107255.3,286047013.4,N
1585107275.2,286047015.1,N
1585107295.0,286047017.6,N
1585107295.9,286047017.6,N
1585107315.8,286047024.0,N
1585107335.6,286047029.0,N
1585107355.4,286047036.1,N
1585107375.3,286047043.0,N
1585107395.1,286047047.4,N
1585107415.9,286047051.7,N
1585107435.7,286047043.2,N
1585107455.5,286047042.4,N
1585107505.4,286047047.5,E
1585107515.3,286047026.6,N
1585107535.2,286046995.5,P
1585107555.9,286046978.4,N
1585107575.7,286046975.7,N
1585107595.6,286046983.2,N
1585107615.4,286046989.7,N
1585107635.2,286046993.2,N
1585107655.1,286046981.4,N
1585107656.0,286046981.4,N
1585107675.8,286046973.5,N
1585107695.7,286046971.0,N
1585107715.5,286046970.3,N
1585107735.3,286046972.1,N
1585107755.2,286046973.6,N
1585107775.0,286046979.6,N
1585107775.9,286046979.6,N
1585107795.7,286046989.8,N
1585107815.6,286046999.3,N
1585107835.4,286047008.0,N
1585107855.3,286047009.3,N
1585107875.1,286047012.2,N
1585107876.0,286047012.2,N
1585107895.8,286047014.3,N
1585107915.7,286047015.5,N
1585107935.5,286047009.4,N
1585107955.3,286047012.2,N
1585107975.2,286047012.4,N
1585107995.0,286047011.0,N
1585107995.9,286047011.0,N
1585108015.8,286047018.3,N
1585108035.6,286047028.1,N
1585108055.4,286047034.9,N
1585108075.3,286047046.7,N
1585108095.1,286047050.9,N
1585108115.9,286047049.3,N
1585108135.7,286047051.5,N
1585108155.5,286047057.8,N
1585108175.4,286047063.6,N
1585108195.2,286047057.3,N
1585108215.0,286047060.1,N
1585108215.9,286047060.1,N
1585108235.8,286047057.4,N
1585108255.6,286047061.6,N
1585108275.5,286047062.4,N
1585108295.3,286047059.2,N
1585108315.1,286047055.3,N
1585108335.9,286047059.7,N
1585108355.7,286047058.6,N
1585108375.5,286047059.9,N
1585108395.4,286047054.3,N
1585108415.2,286047049.7,N
1585108435.1,286047043.2,N
1585108436.0,286047043.2,N
1585108455.8,286047040.4,N
1585108475.6,286047031.8,N
1585108495.5,286047033.0,N
1585108515.3,286047030.9,N
1585108535.1,286047029.0,N
1585108555.9,286047028.1,N
1585108575.7,286047019.3,N
1585108595.6,286047016.3,N
1585108615.4,286047017.1,N
1585108635.2,286047012.2,N
1585108655.1,286047010.1,N
1585108656.0,286047010.1,N
1585108675.8,286047005.4,N
1585108695.7,286047002.0,N
1585108715.5,286047005.9,N
1585108735.3,286047000.0,N
1585108755.2,286046996.6,N
1585108775.9,286046996.7,N
1585108795.7,286046992.5,N
